This is the latest recevied weather packets stored in our database for station/object XE2B-20. If no packets are shown the sender has not sent any weather packets the latest 10 day(s).
| Time | Temp. | Humidity | Pressure | Rain* | Wind** | Luminosity | Snow |
|---|---|---|---|---|---|---|---|
| 1788351666 | 13.89° C | 70% | 810.8 hPa | - | - | - | - |
| 1788350163 | 13.33° C | 70% | 810.7 hPa | - | - | - | - |
| 1788348665 | 13.33° C | 70% | 811 hPa | - | - | - | - |
| 1788347166 | 13.33° C | 69% | 810.9 hPa | - | - | - | - |
| 1788345667 | 13.89° C | 69% | 811.1 hPa | - | - | - | - |
| 1788344167 | 13.89° C | 69% | 811.2 hPa | - | - | - | - |
| 1788342668 | 13.89° C | 69% | 811.2 hPa | - | - | - | - |
| 1788341170 | 13.89° C | 69% | 811.3 hPa | - | - | - | - |
| 1788339670 | 13.89° C | 68% | 811.3 hPa | - | - | - | - |
| 1788338173 | 13.89° C | 68% | 811.4 hPa | - | - | - | - |
| 1788336673 | 13.89° C | 68% | 811.5 hPa | - | - | - | - |
| 1788335174 | 13.89° C | 68% | 811.5 hPa | - | - | - | - |
| 1788333674 | 13.89° C | 67% | 811.7 hPa | - | - | - | - |
| 1788332175 | 13.89° C | 67% | 811.7 hPa | - | - | - | - |
| 1788330676 | 13.89° C | 67% | 811.7 hPa | - | - | - | - |
| 1788329177 | 14.44° C | 67% | 812 hPa | - | - | - | - |
| 1788327679 | 14.44° C | 66% | 812 hPa | - | - | - | - |
| 1788326180 | 14.44° C | 67% | 812.2 hPa | - | - | - | - |
| 1788324681 | 14.44° C | 67% | 812.1 hPa | - | - | - | - |
| 1788323183 | 15° C | 67% | 812 hPa | - | - | - | - |
| 1788321685 | 15° C | 67% | 811.4 hPa | - | - | - | - |
| 1788320183 | 16.11° C | 65% | 811.2 hPa | - | - | - | - |
| 1788318692 | 16.67° C | 65% | 810.8 hPa | - | - | - | - |
| 1788317185 | 17.78° C | 64% | 810.3 hPa | - | - | - | - |
| 1788315686 | 18.33° C | 63% | 809.7 hPa | - | - | - | - |
* Rain since midnight (hover to see other rain measurements)
** Current wind speed in m/s (hover to see current wind gust speed)